Regional Weather Roundup
Issued by NWS Bismarck, ND

Home | Current Version | Previous Version | Text Only | Print | Product List | Glossary On
Versions: 1 2 3 4 5 6 7 8 9 10 11 12 13 14 15 16 17 18 19 20 21 22 23 24 25 26 27 28 29 30 31 32 33 34 35 36 37 38 39 40 41 42 43 44 45 46 47 48 49 50
000
ASUS43 KBIS 031520
RWRBIS

NWR BROADCAST TEXT
NATIONAL WEATHER SERVICE BISMARCK ND
900 AM CST TUE MAR 03 2015

NOTE: "FAIR" INDICATES FEW OR NO CLOUDS BELOW 12,000 FEET WITH NO
SIGNIFICANT WEATHER AND/OR OBSTRUCTIONS TO VISIBILITY.


CITY           SKY/WX    TMP DP  RH WIND       PRES   REMARKS
WILLISTON      MOSUNNY    4  -5  66 NW17      30.11R WCI -16
MINOT          CLOUDY     1  -7  68 W21       30.01R WCI -21
MINOT AFB      SUNNY      0  -6  74 NW24      29.99R WCI -24
BISMARCK       PTSUNNY    7  -4  60 NW24G38   30.03R WCI -14
DICKINSON      MOSUNNY    7  -3  64 NW21G30   29.98S WCI -13
GARRISON         N/A      2  -5  72 NW26G36   30.01R WCI -22
HETTINGER ARPT PTSUNNY    6  -4  63 NW23G32   30.02R WCI -15
JAMESTOWN      MOSUNNY    6  -3  66 NW28G38   29.90R WCI -17
BEACH          PTSUNNY    5   0  78 NW29G36   30.06S WCI -19
CARRINGTON     CLOUDY     3  -2  78 MISG      29.94R
CROSBY         PTSUNNY    0  -8  71 NW23G30   30.07R WCI -24
HARVEY         FAIR       1  -6  71 NW24G32   29.96R WCI -22
HAZEN          FAIR       7  -6  56 NW18G36   30.07R WCI -12
LINTON         FAIR       9   0  66 NW23G37   29.99R WCI -12
MANDAN         FAIR       7  -2  66 NW25G41   30.01R WCI -15
OAKES            N/A     10   5  79 NW32G39   29.88R WCI -12
RUGBY          FAIR       0  -8  71 NW24      29.95R WCI -24
TIOGA          FAIR       0  -4  85 NW22G28   30.05R WCI -23
WATFORD CITY   LGT SNOW   5   0  78 NW14G21   30.06R WCI -12
$$

CITY           SKY/WX    TMP DP  RH WIND       PRES   REMARKS
GRAND FORKS    FLURRIES  11   3  70 NW25G35   29.85R WCI -10
GRAND FORKS AF CLOUDY     9  -2  61 NW22G36   29.86R WCI -11
DEVILS LAKE    SUNNY      3  -8  60 NW30      29.89R WCI -21
FARGO          LGT SNOW  14   6  70 NW26G35   29.85R WCI  -6
CANDO          FAIR       1  -4  78 NW22      29.91R WCI -21
CAVALIER       LGT SNOW   7   0  72 NW23G33   29.86R VSB 1   WCI -14
GWINNER        MOSUNNY   14   5  67 NW26G37   29.88R WCI  -6
ROLLA          FAIR       0  -9  65 NW28G35   29.86R WCI -26
WALHALLA       LGT SNOW   5   0  78 NW25G32   29.87R WCI -18
$$

CITY           SKY/WX    TMP DP  RH WIND       PRES   REMARKS
ABERDEEN       BLWGSNOW  13   6  74 NW33G40   29.94R VSB 3/4 WCI  -9
MOBRIDGE       CLOUDY    13   2  61 N28G35    29.96R WCI  -8
BUFFALO          N/A      9  -3  58 NW33G39   29.93R WCI -15
RAPID CITY     CLOUDY    14   7  73 N32G43    29.96S WCI  -7
GLASGOW        SUNNY      6  -5  60 NW21G30   30.16R WCI -14
SIDNEY         MOSUNNY    7  -6  56 NW22G31   30.15S WCI -14
WOLF POINT     SUNNY      8  -3  61 W15G21    30.18S WCI  -9
GLENDIVE       MOSUNNY    7  -2  66 NW22G28   30.11S WCI -14
MILES CITY     PTSUNNY    9  -1  64 NW14      30.16R WCI  -7
BAKER          MOSUNNY    6  -5  60 NW25G32   30.06R WCI -16
$$

CITY           SKY/WX    TMP DP  RH WIND       PRES   REMARKS
BILLINGS       FLURRIES   9   2  73 E5        30.13S WCI   1
GREAT FALLS    PTCLDY     1  -2  87 SW7       30.18F WCI -12
REGINA         MOSUNNY   -8 -15  71 W13       30.05F WCI -28
ESTEVAN        SUNNY     -4  -9  77 NW22G28   30.02S WCI -28
$$



USA.gov is the U.S. government's official web portal to all federal, state and local government web resources and services.